211  
ASUS41 KBTV 230930  
RWRBTV  
VERMONT REGIONAL WEATHER ROUNDUP  
NATIONAL WEATHER SERVICE BURLINGTON VT  
400 AM EST FRI FEB 23 2024  
 
NOTE: "FAIR" INDICATES FEW OR NO CLOUDS BELOW 12,000 FEET WITH NO  
SIGNIFICANT WEATHER AND/OR S TO VISIBILITY
.  
 
* THESE REPORTS ARE NOT UNDER NWS QUALITY CONTROL AND/OR DO NOT  
REPORT WEATHER SUCH AS PRECIPITATION AND FOG.
 
 
VTZ001>019-231000-  
_____VERMONT_____  
 
 
CITY SKY/WX TMP DP RH WIND PRES REMARKS
 
BURLINGTON CLOUDY 36 33 89 S12 29.54F WCI 28 TC 2  
MONTPELIER LGT SNOW 33 29 85 CALM 29.56F FOG TC 1  
MORRISVILLE CLOUDY 32 29 88 CALM 29.54F TC 0  
ST. JOHNSBURY* N/A 33 30 88 MISG 29.54F TC 1  
LYNDONVILLE* LGT SNOW 31 30 97 SE5 29.55S WCI 26 TC -1  
MIDDLEBURY* DRIZZLE 34 31 87 S5 29.56S WCI 30 TC 1  
RUTLAND* LGT RAIN N/A N/A N/A E5 29.56F  
SPRINGFIELD LGT SNOW 33 30 88 CALM 29.58F FOG TC 1  
HIGHGATE* CLOUDY 37 36 96 S7 29.53F WCI 31 TC 3  
NEWPORT* CLOUDY 33 31 93 S6 29.53F WCI 27 TC 1  
BENNINGTON LGT RAIN 35 33 92 CALM 29.55F FOG TC 2  
GALLUP MILLS* N/A 30 N/A N/A MISG N/A TC -1  
 
_____LAKE CHAMPLAIN_____  
 
 
CITY SKY/WX TMP DP RH WIND PRES REMARKS
 
BURTON ISLAND* N/A 36 34 93 N13 N/A WCI 27 TC 2  
COLCHESTER RF* N/A 36 34 93 S18 N/A WCI 25 TC 2  
DIAMOND ISL* N/A 36 34 93 S1 N/A TC 2  
 

 
 
NYZ007-026>031-035-052-083-087-231000-  
_____NORTHERN NEW YORK_____  
 
 
CITY SKY/WX TMP DP RH WIND PRES REMARKS
 
PLATTSBURGH CLOUDY 35 32 88 S3 29.53F TC 2  
SARANAC LAKE CLOUDY 33 32 96 SW6 29.47F FOG WCI 28  
MASSENA CLOUDY 38 34 85 SW10 29.51F WCI 31 TC 3  
OGDENSBURG* CLOUDY 36 36 100 SW7 29.49S WCI 30 TC 2  
POTSDAM* CLOUDY 37 36 93 S8 29.50F WCI 31 TC 3  
WATERTOWN CLOUDY 38 34 85 S6 29.52F TC 3  
FT DRUM CLOUDY 36 34 93 S9 29.48F WCI 29 TC 2  
ALBANY LGT RAIN 36 34 92 S5 29.59F FOG TC 2  
GLENS FALLS LGT RAIN 34 33 96 S7 29.58F WCI 28 TC 1  
 

 
NHZ002-005-011-231000-  
_____NEW HAMPSHIRE_____  
 
 
CITY SKY/WX TMP DP RH WIND PRES REMARKS
 
LEBANON LGT SNOW 33 31 92 S3 29.57F FOG TC 1  
KEENE MIX PCPN 32 31 96 CALM 29.60F TC 0  
MT WASHINGTON SNOW 23 23 100 W24 N/A VSB 0 WCI 7  
PLYMOUTH LGT SNOW 31 30 96 CALM 29.59S TC 0  
WHITEFIELD LGT SNOW 31 30 96 CALM 29.54F FOG TC -1  
 

 
 
_____REGIONAL QUEBEC LOCATIONS_____  
 
 
CITY SKY/WX TMP DP RH WIND PRES REMARKS
 
MONTREAL CLOUDY 36 34 93 SE8 29.50F WCI 29 TC 2  
QUEBEC CITY CLOUDY 30 28 93 CALM 29.52F TC -1  
SHERBROOKE CLOUDY 34 30 86 E3 29.51F TC 1  
 
_____REGIONAL ONTARIO LOCATIONS_____  
 
 
CITY SKY/WX TMP DP RH WIND PRES REMARKS
 
OTTAWA CLOUDY 36 34 93 SW8 29.48F WCI 29 TC 2  
 
______KEY______  
VSB - VISIBILITY IN MILES  
WCI - WIND CHILL INDEX  
HX - HEAT INDEX  

 
NNNN  
 
 
CLICK HERE TO GO TO PREVIOUS BULLETINS.

The Nexlab VT Page
The Nexlab NY Page Main Text Page